• In Czech Republic
  • List of Countries
  • For 7 days
  • Water Temperature
  • Satellite Maps
  • Weather Map
  • Weather Widgets
  • user-avatar
    Login

    Hourly Weather Taldy Kurgan

    Today, 23 September, Sunday

    Time Temperature Precipitation Wind Pressure Humidity
    00:00 +19°C° 0 mm 1 mps 715 mmHg 48%
    01:00 +18°C° 0 mm 2 mps 715 mmHg 48%
    02:00 +18°C° 0 mm 2 mps 715 mmHg 47%
    03:00 +18°C° 0 mm 2 mps 715 mmHg 47%
    04:00 +17°C° 0 mm 2 mps 715 mmHg 48%
    05:00 +18°C° 0 mm 1 mps 715 mmHg 46%
    06:00 +20°C° 0 mm 1 mps 715 mmHg 41%
    07:00 +21°C° 0 mm 1 mps 716 mmHg 36%
    08:00 +23°C° 0 mm 1 mps 716 mmHg 32%
    09:00 +24°C° 0 mm 1 mps 716 mmHg 29%
    10:00 +25°C° 0 mm 2 mps 716 mmHg 26%
    11:00 +26°C° 0 mm 2 mps 715 mmHg 23%
    12:00 +26°C° 0 mm 2 mps 715 mmHg 22%
    13:00 +27°C° 0 mm 3 mps 715 mmHg 22%
    14:00 +27°C° 0 mm 3 mps 715 mmHg 21%
    15:00 +27°C° 0 mm 3 mps 714 mmHg 22%
    16:00 +26°C° 0 mm 3 mps 714 mmHg 23%
    17:00 +25°C° 0 mm 3 mps 714 mmHg 25%
    18:00 +24°C° 0 mm 3 mps 714 mmHg 27%
    19:00 +23°C° 0 mm 2 mps 714 mmHg 29%
    20:00 +21°C° 0 mm 2 mps 714 mmHg 31%
    21:00 +21°C° 0 mm 2 mps 714 mmHg 32%
    22:00 +20°C° 0 mm 2 mps 714 mmHg 32%
    23:00 +20°C° 0 mm 2 mps 714 mmHg 33%

    Tomorrow, 24 September, Monday

    Time Temperature Precipitation Wind Pressure Humidity
    00:00 +19°C° 0.6 mm 2 mps 714 mmHg 42%
    01:00 +18°C° 0.6 mm 3 mps 714 mmHg 52%
    02:00 +17°C° 0.6 mm 4 mps 714 mmHg 61%
    03:00 +15°C° 0.9 mm 4 mps 714 mmHg 64%
    04:00 +15°C° 0.9 mm 4 mps 715 mmHg 67%
    05:00 +14°C° 0.9 mm 4 mps 715 mmHg 70%
    06:00 +15°C° 0.2 mm 4 mps 715 mmHg 65%
    07:00 +17°C° 0.2 mm 4 mps 715 mmHg 60%
    08:00 +18°C° 0.2 mm 4 mps 716 mmHg 55%
    09:00 +17°C° 0.5 mm 5 mps 715 mmHg 55%
    10:00 +17°C° 0.5 mm 5 mps 715 mmHg 55%
    11:00 +17°C° 0.5 mm 5 mps 715 mmHg 54%
    12:00 +19°C° 0.3 mm 5 mps 715 mmHg 51%
    13:00 +19°C° 0.3 mm 5 mps 716 mmHg 48%
    14:00 +20°C° 0.3 mm 5 mps 716 mmHg 45%
    15:00 +19°C° 0.1 mm 5 mps 716 mmHg 48%
    16:00 +18°C° 0.1 mm 4 mps 716 mmHg 50%
    17:00 +17°C° 0.1 mm 4 mps 716 mmHg 52%
    18:00 +17°C° 0.3 mm 3 mps 717 mmHg 57%
    19:00 +16°C° 0.3 mm 3 mps 717 mmHg 61%
    20:00 +15°C° 0.3 mm 2 mps 718 mmHg 65%
    21:00 +14°C° 0.2 mm 3 mps 718 mmHg 67%
    22:00 +13°C° 0.2 mm 3 mps 718 mmHg 69%
    23:00 +13°C° 0.2 mm 3 mps 718 mmHg 71%

    Day after tomorrow, 25 September, Tuesday

    Time Temperature Precipitation Wind Pressure Humidity
    00:00 +12°C° 0.1 mm 3 mps 718 mmHg 72%
    01:00 +13°C° 0.1 mm 2 mps 718 mmHg 73%
    02:00 +13°C° 0.1 mm 2 mps 719 mmHg 74%
    03:00 +12°C° 0 mm 2 mps 719 mmHg 72%
    04:00 +12°C° 0 mm 2 mps 719 mmHg 71%
    05:00 +12°C° 0 mm 2 mps 719 mmHg 69%
    06:00 +13°C° 0 mm 2 mps 719 mmHg 64%
    07:00 +14°C° 0 mm 2 mps 720 mmHg 59%
    08:00 +15°C° 0 mm 1 mps 720 mmHg 54%
    09:00 +16°C° 0 mm 1 mps 720 mmHg 49%
    10:00 +17°C° 0 mm 2 mps 720 mmHg 44%
    11:00 +18°C° 0 mm 2 mps 720 mmHg 39%
    12:00 +19°C° 0 mm 2 mps 720 mmHg 36%
    13:00 +20°C° 0 mm 3 mps 720 mmHg 34%
    14:00 +20°C° 0 mm 3 mps 719 mmHg 32%
    15:00 +20°C° 0 mm 4 mps 719 mmHg 34%
    16:00 +19°C° 0 mm 4 mps 719 mmHg 36%
    17:00 +19°C° 0 mm 5 mps 719 mmHg 38%
    18:00 +17°C° 0 mm 5 mps 720 mmHg 41%
    19:00 +15°C° 0 mm 5 mps 720 mmHg 43%
    20:00 +14°C° 0 mm 5 mps 720 mmHg 45%
    21:00 +14°C° 0 mm 4 mps 720 mmHg 45%
    22:00 +13°C° 0 mm 4 mps 719 mmHg 45%
    23:00 +13°C° 0 mm 4 mps 719 mmHg 45%

    26 September, Wednesday

    Time Temperature Precipitation Wind Pressure Humidity
    00:00 +13°C° 0 mm 3 mps 719 mmHg 45%
    01:00 +12°C° 0 mm 3 mps 719 mmHg 45%
    02:00 +12°C° 0 mm 3 mps 719 mmHg 45%
    03:00 +12°C° 0 mm 3 mps 718 mmHg 45%
    04:00 +12°C° 0 mm 3 mps 718 mmHg 45%
    05:00 +11°C° 0 mm 3 mps 718 mmHg 45%
    06:00 +13°C° 0 mm 4 mps 719 mmHg 43%
    07:00 +14°C° 0 mm 4 mps 719 mmHg 40%
    08:00 +15°C° 0 mm 4 mps 719 mmHg 38%
    09:00 +18°C° 0 mm 4 mps 719 mmHg 35%
    10:00 +19°C° 0 mm 4 mps 719 mmHg 32%
    11:00 +21°C° 0 mm 4 mps 719 mmHg 28%
    12:00 +21°C° 0 mm 5 mps 718 mmHg 27%
    13:00 +22°C° 0 mm 5 mps 718 mmHg 26%
    14:00 +23°C° 0 mm 5 mps 718 mmHg 25%
    15:00 +22°C° 0 mm 5 mps 717 mmHg 27%
    16:00 +21°C° 0 mm 5 mps 717 mmHg 29%
    17:00 +21°C° 0 mm 5 mps 717 mmHg 31%
    18:00 +20°C° 0 mm 5 mps 717 mmHg 33%
    19:00 +18°C° 0 mm 4 mps 717 mmHg 35%
    20:00 +17°C° 0 mm 4 mps 717 mmHg 37%
    21:00 +17°C° 0 mm 3 mps 717 mmHg 38%
    22:00 +16°C° 0 mm 3 mps 717 mmHg 38%
    23:00 +16°C° 0 mm 3 mps 717 mmHg 38%

    27 September, Thursday

    Time Temperature Precipitation Wind Pressure Humidity
    00:00 +14°C° 0 mm 3 mps 716 mmHg 38%
    01:00 +14°C° 0 mm 3 mps 716 mmHg 39%
    02:00 +14°C° 0 mm 3 mps 716 mmHg 39%
    03:00 +13°C° 0 mm 3 mps 716 mmHg 39%
    04:00 +13°C° 0 mm 3 mps 716 mmHg 39%
    05:00 +13°C° 0 mm 3 mps 716 mmHg 39%
    06:00 +14°C° 0 mm 3 mps 716 mmHg 36%
    07:00 +17°C° 0 mm 3 mps 717 mmHg 33%
    08:00 +18°C° 0 mm 2 mps 717 mmHg 29%
    09:00 +20°C° 0 mm 3 mps 717 mmHg 26%
    10:00 +21°C° 0 mm 3 mps 717 mmHg 23%
    11:00 +23°C° 0 mm 4 mps 717 mmHg 21%
    12:00 +25°C° 0 mm 4 mps 717 mmHg 20%
    13:00 +25°C° 0 mm 4 mps 716 mmHg 19%
    14:00 +26°C° 0 mm 4 mps 716 mmHg 18%
    15:00 +25°C° 0 mm 4 mps 716 mmHg 20%
    16:00 +23°C° 0 mm 4 mps 716 mmHg 22%
    17:00 +22°C° 0 mm 4 mps 716 mmHg 24%
    18:00 +21°C° 0 mm 3 mps 716 mmHg 26%
    19:00 +20°C° 0 mm 3 mps 716 mmHg 27%
    20:00 +18°C° 0 mm 3 mps 716 mmHg 29%
    21:00 +18°C° 0 mm 2 mps 716 mmHg 30%
    22:00 +17°C° 0 mm 2 mps 716 mmHg 30%
    23:00 +17°C° 0 mm 2 mps 715 mmHg 31%

    28 September, Friday

    Time Temperature Precipitation Wind Pressure Humidity
    00:00 +16°C° 0 mm 2 mps 715 mmHg 31%
    01:00 +16°C° 0 mm 2 mps 715 mmHg 32%
    02:00 +16°C° 0 mm 2 mps 715 mmHg 32%
    03:00 +15°C° 0 mm 2 mps 715 mmHg 33%
    04:00 +15°C° 0 mm 2 mps 715 mmHg 33%
    05:00 +15°C° 0 mm 2 mps 715 mmHg 33%
    06:00 +17°C° 0 mm 2 mps 716 mmHg 30%
    07:00 +18°C° 0 mm 2 mps 716 mmHg 27%
    08:00 +20°C° 0 mm 2 mps 716 mmHg 24%
    09:00 +23°C° 0 mm 2 mps 716 mmHg 21%
    10:00 +24°C° 0 mm 2 mps 716 mmHg 18%
    11:00 +26°C° 0 mm 2 mps 716 mmHg 15%
    12:00 +26°C° 0 mm 2 mps 716 mmHg 14%
    13:00 +27°C° 0 mm 2 mps 716 mmHg 14%
    14:00 +27°C° 0 mm 2 mps 716 mmHg 13%
    15:00 +27°C° 0 mm 2 mps 716 mmHg 15%
    16:00 +26°C° 0 mm 2 mps 716 mmHg 17%
    17:00 +25°C° 0 mm 2 mps 716 mmHg 19%
    18:00 +24°C° 0 mm 2 mps 716 mmHg 20%
    19:00 +23°C° 0 mm 2 mps 716 mmHg 21%
    20:00 +20°C° 0 mm 2 mps 717 mmHg 22%
    21:00 +20°C° 0 mm 3 mps 717 mmHg 21%
    22:00 +20°C° 0 mm 3 mps 717 mmHg 21%
    23:00 +19°C° 0 mm 3 mps 717 mmHg 21%
    Show more